DW2227 Weather Reports


Display with metric or nautical units.
time (UTC)temp
F
wind
direction
speed
MPH
gust
MPH
rain 1hr
in
rain 24hr
in
rain mn
in
humidity
%
barometer
mb
20260904190327 96 73 1.0 4.0 0.00 0.00 0.00 53 1013.7
20260904185821 96 211 1.0 4.0 0.00 0.00 0.00 54 1013.8
20260904185334 96 312 1.0 4.0 0.00 0.00 0.00 56 1013.8
20260904184828 96 267 1.0 2.0 0.00 0.00 0.00 54 1014.0
20260904184344 96 296 1.0 3.0 0.00 0.00 0.00 54 1014.0
20260904183818 96 238 0.0 3.0 0.00 0.00 0.00 55 1014.0
20260904183332 96 128 1.0 4.0 0.00 0.00 0.00 54 1014.1
20260904182828 96 319 1.0 4.0 0.00 0.00 0.00 57 1014.1
20260904182322 95 230 0.0 4.0 0.00 0.00 0.00 58 1014.1
20260904181817 95 331 0.0 4.0 0.00 0.00 0.00 56 1014.1
20260904181331 95 252 1.0 4.0 0.00 0.00 0.00 56 1014.1
20260904180844 95 251 1.0 4.0 0.00 0.00 0.00 58 1014.1
20260904180318 94 60 1.0 4.0 0.00 0.00 0.00 60 1014.2
20260904175829 94 184 1.0 3.0 0.00 0.00 0.00 59 1014.1
20260904175323 94 232 0.0 3.0 0.00 0.00 0.00 62 1014.1
20260904174817 94 261 1.0 3.0 0.00 0.00 0.00 59 1014.2
20260904174334 94 229 0.0 3.0 0.00 0.00 0.00 58 1014.3
20260904173828 94 316 0.0 3.0 0.00 0.00 0.00 61 1014.2
20260904173323 94 232 0.0 2.0 0.00 0.00 0.00 58 1014.3
20260904172816 94 148 1.0 5.0 0.00 0.00 0.00 58 1014.4
20260904172332 94 303 2.0 5.0 0.00 0.00 0.00 59 1014.5
20260904171827 94 336 0.0 3.0 0.00 0.00 0.00 61 1014.4
20260904171324 94 175 1.0 2.0 0.00 0.00 0.00 60 1014.4
20260904170818 94 142 1.0 3.0 0.00 0.00 0.00 60 1014.5
20260904170333 93 215 1.0 4.0 0.00 0.00 0.00 58 1014.6
20260904165842 93 312 1.0 4.0 0.00 0.00 0.00 58 1014.5
20260904165331 93 280 1.0 3.0 0.00 0.00 0.00 60 1014.6
20260904164826 93 338 1.0 3.0 0.00 0.00 0.00 59 1014.6
20260904164321 93 322 1.0 3.0 0.00 0.00 0.00 59 1014.6
20260904163836 93 272 0.0 1.0 0.00 0.00 0.00 61 1014.5
20260904163329 92 272 0.0 2.0 0.00 0.00 0.00 63 1014.5
20260904162825 92 304 0.0 2.0 0.00 0.00 0.00 64 1014.4
20260904162319 92 302 1.0 2.0 0.00 0.00 0.00 62 1014.4
20260904161835 91 238 0.0 2.0 0.00 0.00 0.00 65 1014.4
20260904161329 91 241 1.0 2.0 0.00 0.00 0.00 66 1014.5
20260904160824 91 276 0.0 2.0 0.00 0.00 0.00 66 1014.4
20260904160339 90 276 0.0 2.0 0.00 0.00 0.00 67 1014.4
20260904155834 90 188 0.0 2.0 0.00 0.00 0.00 68 1014.4
20260904155328 89 238 0.0 1.0 0.00 0.00 0.00 71 1014.4
20260904154844 88 185 0.0 1.0 0.00 0.00 0.00 71 1014.4
20260904154339 87 268 0.0 1.0 0.00 0.00 0.00 71 1014.4
20260904153831 87 60 0.0 2.0 0.00 0.00 0.00 74 1014.5
20260904153326 87 27 0.0 2.0 0.00 0.00 0.00 72 1014.5
20260904152822 87 188 0.0 1.0 0.00 0.00 0.00 75 1014.5
20260904152332 86 188 0.0 1.0 0.00 0.00 0.00 74 1014.5
20260904151827 86 188 0.0 1.0 0.00 0.00 0.00 72 1014.5
20260904151341 86 68 0.0 1.0 0.00 0.00 0.00 73 1014.4
20260904150817 86 207 0.0 1.0 0.00 0.00 0.00 73 1014.3
20260904150331 85 236 0.0 2.0 0.00 0.00 0.00 74 1014.4
20260904145825 85 167 0.0 2.0 0.00 0.00 0.00 75 1014.3
20260904145341 85 46 0.0 1.0 0.00 0.00 0.00 74 1014.3
20260904144835 85 292 0.0 2.0 0.00 0.00 0.00 74 1014.3
20260904144325 84 233 0.0 3.0 0.00 0.00 0.00 75 1014.3
20260904143838 84 309 0.0 3.0 0.00 0.00 0.00 73 1014.2
20260904143332 84 347 0.0 3.0 0.00 0.00 0.00 75 1014.2
20260904142846 84 229 0.0 5.0 0.00 0.00 0.00 75 1014.2
20260904142321 84 300 0.0 5.0 0.00 0.00 0.00 75 1014.3
20260904141816 84 279 0.0 3.0 0.00 0.00 0.00 75 1014.1
20260904141331 83 154 1.0 3.0 0.00 0.00 0.00 75 1014.0
20260904140846 83 139 0.0 2.0 0.00 0.00 0.00 76 1013.9
20260904140321 83 33 0.0 4.0 0.00 0.00 0.00 77 1013.9
20260904135833 82 289 0.0 4.0 0.00 0.00 0.00 76 1013.8
20260904135327 82 311 0.0 3.0 0.00 0.00 0.00 77 1013.8
20260904134844 82 312 1.0 3.0 0.00 0.00 0.00 77 1013.8
20260904134316 81 338 0.0 3.0 0.00 0.00 0.00 78 1013.8
20260904133831 81 292 0.0 2.0 0.00 0.00 0.00 79 1013.7
20260904133326 81 311 0.0 3.0 0.00 0.00 0.00 78 1013.7
20260904132821 80 11 1.0 3.0 0.00 0.00 0.00 79 1013.6
20260904132332 80 251 1.0 3.0 0.00 0.00 0.00 80 1013.5
20260904131826 79 75 0.0 3.0 0.00 0.00 0.00 81 1013.5
20260904131340 79 236 0.0 2.0 0.00 0.00 0.00 82 1013.5
20260904130854 78 125 0.0 1.0 0.00 0.00 0.00 83 1013.4
20260904130328 78 256 0.0 1.0 0.00 0.00 0.00 83 1013.4
20260904125843 78 178 0.0 1.0 0.00 0.00 0.00 84 1013.3
20260904125331 77 211 0.0 1.0 0.00 0.00 0.00 84 1013.3
20260904124825 77 71 0.0 1.0 0.00 0.00 0.00 84 1013.2
20260904124341 77 9 0.0 1.0 0.00 0.00 0.00 85 1013.2
20260904123834 77 27 0.0 2.0 0.00 0.00 0.00 85 1013.0
20260904123328 77 58 0.0 2.0 0.00 0.00 0.00 85 1013.0
20260904122825 76 142 0.0 1.0 0.00 0.00 0.00 85 1012.9
20260904122318 76 38 0.0 1.0 0.00 0.00 0.00 86 1012.9
20260904121834 76 22 0.0 1.0 0.00 0.00 0.00 86 1012.8
20260904121328 76 22 0.0 1.0 0.00 0.00 0.00 86 1012.8
20260904120844 76 59 0.0 1.0 0.00 0.00 0.00 87 1012.8
20260904120352 76 234 0.0 1.0 0.00 0.00 0.00 87 1012.7
20260904115826 75 219 0.0 1.0 0.00 0.00 0.00 87 1012.6
20260904115321 75 119 0.0 0.0 0.00 0.00 0.00 87 1012.5
20260904114836 75 119 0.0 0.0 0.00 0.00 0.00 87 1012.4
20260904114351 75 119 0.0 0.0 0.00 0.00 0.00 87 1012.5
20260904113825 75 119 0.0 0.0 0.00 0.00 0.00 87 1012.5
20260904113321 75 119 0.0 0.0 0.00 0.00 0.00 87 1012.6
20260904112832 75 119 0.0 0.0 0.00 0.00 0.00 87 1012.5
20260904112328 75 119 0.0 0.0 0.00 0.00 0.00 87 1012.5
20260904111842 75 119 0.0 0.0 0.00 0.00 0.00 88 1012.5
20260904111331 75 119 0.0 0.0 0.00 0.00 0.00 88 1012.5
20260904110825 75 119 0.0 0.0 0.00 0.00 0.00 88 1012.6
20260904110321 76 119 0.0 0.0 0.00 0.00 0.00 88 1012.6
20260904105837 75 119 0.0 0.0 0.00 0.00 0.00 87 1012.5
20260904105350 75 119 0.0 0.0 0.00 0.00 0.00 87 1012.4
20260904104824 75 119 0.0 0.0 0.00 0.00 0.00 88 1012.5
20260904104319 75 119 0.0 0.0 0.00 0.00 0.00 88 1012.4
20260904103833 75 119 0.0 0.0 0.00 0.00 0.00 88 1012.4
20260904103330 75 119 0.0 0.0 0.00 0.00 0.00 88 1012.4
20260904102844 75 119 0.0 0.0 0.00 0.00 0.00 88 1012.4
20260904102318 75 119 0.0 0.0 0.00 0.00 0.00 88 1012.4
20260904101833 75 119 0.0 0.0 0.00 0.00 0.00 89 1012.4
20260904101328 75 119 0.0 0.0 0.00 0.00 0.00 89 1012.5
20260904100824 75 119 0.0 0.0 0.00 0.00 0.00 89 1012.5
20260904100318 75 119 0.0 0.0 0.00 0.00 0.00 89 1012.4
20260904095832 75 119 0.0 0.0 0.00 0.00 0.00 89 1012.4
20260904095327 75 119 0.0 0.0 0.00 0.00 0.00 89 1012.3
20260904094821 75 119 0.0 0.0 0.00 0.00 0.00 89 1012.3
20260904094335 75 119 0.0 0.0 0.00 0.00 0.00 89 1012.3
20260904093831 75 119 0.0 0.0 0.00 0.00 0.00 89 1012.4
20260904093329 75 119 0.0 0.0 0.00 0.00 0.00 89 1012.4
20260904092825 75 119 0.0 0.0 0.00 0.00 0.00 89 1012.4
20260904092320 75 119 0.0 0.0 0.00 0.00 0.00 89 1012.4
20260904091818 75 119 0.0 0.0 0.00 0.00 0.00 89 1012.3
20260904091353 75 119 0.0 0.0 0.00 0.00 0.00 89 1012.3
20260904090828 75 119 0.0 0.0 0.00 0.00 0.00 89 1012.3
20260904090320 75 119 0.0 0.0 0.00 0.00 0.00 90 1012.2
20260904085831 75 119 0.0 0.0 0.00 0.00 0.00 90 1012.1
20260904085326 75 119 0.0 0.0 0.00 0.00 0.00 90 1012.1
20260904084821 75 119 0.0 0.0 0.00 0.00 0.00 90 1012.1
20260904084336 75 119 0.0 0.0 0.00 0.00 0.00 90 1012.0
20260904083830 75 119 0.0 0.0 0.00 0.00 0.00 90 1012.2
20260904083325 75 119 0.0 0.0 0.00 0.00 0.00 90 1012.2
20260904082820 75 119 0.0 0.0 0.00 0.00 0.00 90 1012.2
20260904082333 75 119 0.0 0.0 0.00 0.00 0.00 90 1012.2
20260904081828 75 119 0.0 0.0 0.00 0.00 0.00 90 1012.1
20260904081322 75 119 0.0 0.0 0.00 0.00 0.00 90 1012.2
20260904080817 75 119 0.0 0.0 0.00 0.00 0.00 90 1012.2
20260904080331 75 119 0.0 0.0 0.00 0.00 0.00 90 1012.1
20260904075846 75 119 0.0 0.0 0.00 0.00 0.00 90 1012.2
20260904075320 75 119 0.0 0.0 0.00 0.00 0.00 90 1012.1
20260904074855 75 119 0.0 0.0 0.00 0.00 0.00 90 1012.2
20260904074329 75 119 0.0 0.0 0.00 0.00 0.00 90 1012.3
20260904073824 75 119 0.0 0.0 0.00 0.00 0.00 90 1012.3
20260904073320 75 119 0.0 0.0 0.00 0.00 0.00 90 1012.4
20260904072834 75 119 0.0 0.0 0.00 0.00 0.00 90 1012.5
20260904072350 75 119 0.0 0.0 0.00 0.00 0.00 90 1012.6
20260904071826 75 119 0.0 0.0 0.00 0.00 0.00 90 1012.6
20260904071341 75 119 0.0 0.0 0.00 0.00 0.00 90 1012.6
20260904070834 75 119 0.0 0.0 0.00 0.00 0.00 90 1012.7
20260904070349 75 119 0.0 0.0 0.00 0.00 0.00 90 1012.7
20260904065844 75 119 0.0 0.0 0.00 0.00 0.00 90 1012.8
20260904065318 76 119 0.0 0.0 0.00 0.00 0.00 90 1012.7
20260904064829 76 119 0.0 0.0 0.00 0.00 0.00 90 1012.7
20260904064342 76 119 0.0 0.0 0.00 0.00 0.00 90 1012.7
20260904063831 76 119 0.0 0.0 0.00 0.00 0.00 90 1012.8
20260904063324 76 119 0.0 0.0 0.00 0.00 0.00 90 1012.8
20260904062850 76 119 0.0 0.0 0.00 0.00 0.00 90 1012.8
20260904062345 76 119 0.0 0.0 0.00 0.00 0.00 90 1012.8
20260904061819 76 119 0.0 0.0 0.00 0.00 0.00 90 1012.8
20260904061335 76 119 0.0 0.0 0.00 0.00 0.00 90 1012.9
20260904060851 76 119 0.0 0.0 0.00 0.00 0.00 90 1012.8
20260904060324 76 119 0.0 0.0 0.00 0.00 0.00 90 1012.9
20260904055819 76 119 0.0 0.0 0.00 0.00 0.00 90 1013.0
20260904055353 77 119 0.0 0.0 0.00 0.00 0.00 90 1013.0
20260904054828 77 119 0.0 0.0 0.00 0.00 0.00 90 1012.9
20260904054323 77 119 0.0 0.0 0.00 0.00 0.00 90 1013.0
20260904053838 77 119 0.0 0.0 0.00 0.00 0.00 90 1013.0
20260904053332 77 119 0.0 0.0 0.00 0.00 0.00 90 1013.0
20260904052827 77 119 0.0 0.0 0.00 0.00 0.00 90 1013.0
20260904052323 77 119 0.0 0.0 0.00 0.00 0.00 90 1013.0
20260904051837 77 119 0.0 0.0 0.00 0.00 0.00 90 1013.0
20260904051349 77 119 0.0 0.0 0.00 0.00 0.00 90 1012.9
20260904050822 77 119 0.0 0.0 0.00 0.00 0.00 90 1012.9
20260904050317 77 119 0.0 0.0 0.00 0.00 0.00 90 1012.9
20260904045825 77 119 0.0 0.0 0.00 0.00 0.00 90 1012.9
20260904045320 77 119 0.0 0.0 0.00 0.00 0.00 90 1012.8
20260904044855 77 119 0.0 0.0 0.00 0.00 0.00 90 1012.9
20260904044326 77 119 0.0 0.0 0.00 0.00 0.00 90 1012.8
20260904043821 77 119 0.0 0.0 0.00 0.00 0.00 90 1012.7
20260904043317 77 119 0.0 0.0 0.00 0.00 0.00 90 1012.8
20260904042831 77 119 0.0 0.0 0.00 0.00 0.00 90 1012.7
20260904042326 78 119 0.0 0.0 0.00 0.00 0.00 90 1012.6
20260904041822 78 119 0.0 0.0 0.00 0.00 0.00 90 1012.6
20260904041316 78 119 0.0 0.0 0.00 0.00 0.00 90 1012.6
20260904040831 78 119 0.0 0.0 0.00 0.00 0.00 89 1012.6
20260904040327 78 119 0.0 0.0 0.00 0.00 0.00 89 1012.6
20260904035841 78 119 0.0 0.0 0.00 0.00 0.00 89 1012.6
20260904035317 78 119 0.0 0.0 0.00 0.00 0.00 89 1012.7
20260904034832 78 119 0.0 0.0 0.00 0.00 0.00 90 1012.7
20260904034328 78 119 0.0 0.0 0.00 0.00 0.00 89 1012.7
20260904033823 78 119 0.0 0.0 0.00 0.00 0.00 89 1012.7
20260904033339 78 119 0.0 0.0 0.00 0.00 0.00 89 1012.8
20260904032831 79 119 0.0 0.0 0.00 0.00 0.00 89 1012.8
20260904032326 79 119 0.0 0.0 0.00 0.00 0.00 89 1012.8
20260904031821 79 119 0.0 0.0 0.00 0.00 0.00 89 1012.8
20260904031336 79 119 0.0 0.0 0.00 0.00 0.00 89 1012.7
20260904030832 79 119 0.0 0.0 0.00 0.00 0.00 89 1012.7
20260904030345 79 119 0.0 0.0 0.00 0.00 0.00 89 1012.7
20260904025818 79 119 0.0 0.0 0.00 0.00 0.00 89 1012.7
20260904025333 79 119 0.0 0.0 0.00 0.00 0.00 89 1012.7
20260904024827 79 119 0.0 0.0 0.00 0.00 0.00 89 1012.6
20260904024321 80 119 0.0 0.0 0.00 0.00 0.00 89 1012.5
20260904023831 80 119 0.0 0.0 0.00 0.00 0.00 89 1012.5
20260904023325 80 119 0.0 0.0 0.00 0.00 0.00 89 1012.4
20260904022820 80 119 0.0 0.0 0.00 0.00 0.00 89 1012.4
20260904022334 80 119 0.0 0.0 0.00 0.00 0.00 89 1012.3
20260904021829 80 119 0.0 0.0 0.00 0.00 0.00 88 1012.3
20260904021343 80 119 0.0 0.0 0.00 0.00 0.00 88 1012.4
20260904020817 81 119 0.0 0.0 0.00 0.00 0.00 88 1012.4
20260904020333 81 119 0.0 0.0 0.00 0.00 0.00 87 1012.4
20260904015828 81 119 0.0 0.0 0.00 0.00 0.00 87 1012.2
20260904015323 81 119 0.0 0.0 0.00 0.00 0.00 87 1012.2
20260904014819 81 119 0.0 0.0 0.00 0.00 0.00 87 1012.1
20260904014335 81 119 0.0 0.0 0.00 0.00 0.00 87 1012.1
20260904013829 82 119 0.0 0.0 0.00 0.00 0.00 87 1012.0
20260904013344 82 119 0.0 0.0 0.00 0.00 0.00 86 1012.0
20260904012818 82 119 0.0 0.0 0.00 0.00 0.00 85 1011.9
20260904012332 82 119 0.0 0.0 0.00 0.00 0.00 85 1011.9
20260904011827 83 119 0.0 0.0 0.00 0.00 0.00 84 1011.7
20260904011324 83 119 0.0 0.0 0.00 0.00 0.00 84 1011.7
20260904010817 83 119 0.0 0.0 0.00 0.00 0.00 83 1011.6
20260904010331 84 119 0.0 0.0 0.00 0.00 0.00 82 1011.5
20260904005825 84 119 0.0 0.0 0.00 0.00 0.00 81 1011.4
20260904005320 85 119 0.0 0.0 0.00 0.00 0.00 81 1011.3
20260904004855 85 119 0.0 0.0 0.00 0.00 0.00 81 1011.3
20260904004347 86 119 0.0 0.0 0.00 0.00 0.00 79 1011.3
20260904003823 86 119 0.0 0.0 0.00 0.00 0.00 78 1011.2
20260904003317 86 119 0.0 0.0 0.00 0.00 0.00 77 1011.1
20260904002827 87 119 0.0 0.0 0.00 0.00 0.00 76 1011.0
20260904002322 87 119 0.0 0.0 0.00 0.00 0.00 76 1011.0
20260904001819 87 119 0.0 0.0 0.00 0.00 0.00 75 1011.0
20260904001332 88 119 0.0 0.0 0.00 0.00 0.00 74 1010.9
20260904000827 88 119 0.0 0.0 0.00 0.00 0.00 74 1010.9
20260904000322 88 119 0.0 1.0 0.00 0.00 0.00 73 1010.9
20260903235817 88 119 0.0 1.0 0.00 0.00 0.00 73 1011.0
20260903235332 89 119 0.0 1.0 0.00 0.00 0.00 73 1011.0
20260903234825 89 119 0.0 0.0 0.00 0.00 0.00 73 1011.0
20260903234322 89 119 0.0 1.0 0.00 0.00 0.00 73 1011.0
20260903233816 90 119 0.0 1.0 0.00 0.00 0.00 72 1011.0
20260903233331 90 119 0.0 1.0 0.00 0.00 0.00 73 1011.1
20260903232826 90 100 0.0 2.0 0.00 0.00 0.00 71 1010.9
20260903232341 90 100 0.0 2.0 0.00 0.00 0.00 70 1011.0
20260903231832 90 279 0.0 2.0 0.00 0.00 0.00 70 1011.1
20260903231327 91 279 0.0 1.0 0.00 0.00 0.00 70 1011.3
20260903230842 91 279 0.0 0.0 0.00 0.00 0.00 69 1011.4
20260903230332 91 279 0.0 2.0 0.00 0.00 0.00 68 1011.4
20260903225827 91 279 0.0 2.0 0.00 0.00 0.00 66 1011.4
20260903225323 92 279 0.0 1.0 0.00 0.00 0.00 67 1011.4
20260903224817 92 279 0.0 0.0 0.00 0.00 0.00 66 1011.4
20260903224334 92 279 0.0 0.0 0.00 0.00 0.00 65 1011.6
20260903223828 92 279 0.0 1.0 0.00 0.00 0.00 64 1011.7
20260903223321 93 279 0.0 1.0 0.00 0.00 0.00 65 1011.8
20260903222904 93 279 0.0 1.0 0.00 0.00 0.00 65 1011.8
20260903222332 93 279 0.0 1.0 0.00 0.00 0.00 64 1011.8
20260903221826 93 279 0.0 1.0 0.00 0.00 0.00 64 1011.8
20260903221319 93 279 0.0 1.0 0.00 0.00 0.00 61 1011.8
20260903220854 94 279 0.0 1.0 0.00 0.00 0.00 61 1011.9
20260903220326 94 279 0.0 1.0 0.00 0.00 0.00 61 1012.0
20260903215853 94 279 0.0 1.0 0.00 0.00 0.00 61 1012.0
20260903215323 94 279 0.0 1.0 0.00 0.00 0.00 59 1012.1
20260903214819 94 279 0.0 2.0 0.00 0.00 0.00 59 1012.2
20260903214334 94 279 0.0 2.0 0.00 0.00 0.00 61 1012.2
20260903213830 94 279 0.0 1.0 0.00 0.00 0.00 61 1012.3
20260903213324 94 279 0.0 1.0 0.00 0.00 0.00 61 1012.4
20260903212819 94 279 0.0 1.0 0.00 0.00 0.00 60 1012.4
20260903212352 94 279 0.0 1.0 0.00 0.00 0.00 61 1012.6
20260903211826 95 279 0.0 1.0 0.00 0.00 0.00 62 1012.5
20260903211340 95 279 0.0 1.0 0.00 0.00 0.00 62 1012.5
20260903210835 95 279 0.0 1.0 0.00 0.00 0.00 60 1012.6
20260903210330 95 279 0.0 2.0 0.00 0.00 0.00 59 1012.5
20260903205843 95 279 0.0 2.0 0.00 0.00 0.00 59 1012.5
20260903205333 95 105 0.0 1.0 0.00 0.00 0.00 62 1012.5
20260903204828 95 119 0.0 1.0 0.00 0.00 0.00 60 1012.5
20260903204323 95 119 0.0 1.0 0.00 0.00 0.00 60 1012.4
20260903203817 95 119 0.0 1.0 0.00 0.00 0.00 58 1012.5
20260903203331 96 119 0.0 1.0 0.00 0.00 0.00 59 1012.5
20260903202825 96 119 0.0 2.0 0.00 0.00 0.00 56 1012.6
20260903202319 97 115 0.0 2.0 0.00 0.00 0.00 57 1012.6
20260903201834 96 303 0.0 2.0 0.00 0.00 0.00 56 1012.6
20260903201329 96 73 0.0 2.0 0.00 0.00 0.00 58 1012.5
20260903200823 96 236 0.0 1.0 0.00 0.00 0.00 58 1012.6
20260903200319 97 236 0.0 1.0 0.00 0.00 0.00 58 1012.6
20260903195832 97 236 0.0 2.0 0.00 0.00 0.00 56 1012.6
20260903195328 97 236 0.0 2.0 0.00 0.00 0.00 55 1012.6
20260903194823 97 236 0.0 1.0 0.00 0.00 0.00 57 1012.7
20260903194318 97 236 0.0 1.0 0.00 0.00 0.00 54 1012.7
20260903193832 97 236 0.0 1.0 0.00 0.00 0.00 57 1012.8
20260903193328 97 236 0.0 2.0 0.00 0.00 0.00 56 1012.8
20260903192822 97 236 0.0 2.0 0.00 0.00 0.00 59 1012.8
20260903192329 96 236 0.0 2.0 0.00 0.00 0.00 58 1012.7
20260903191822 96 236 0.0 2.0 0.00 0.00 0.00 58 1012.8
20260903191317 95 236 0.0 2.0 0.00 0.00 0.00 57 1012.8
20260903190832 95 124 0.0 2.0 0.00 0.00 0.00 62 1012.8